Location: Pardubice
(50.0330°N, 15.7830°E)
Time: 09:03:28
(UTC+02:00)

ISS - Visible Passes

Search period start: 20 April 2024 00:00
Search period end: 30 April 2024 00:00
Orbit: 412 x 418 km, 51.6° (Epoch: 20 April)

Date Brightness Start Highest point End Pass type
(mag) Time Alt. Az. Time Alt. Az. Time Alt. Az.
23 Apr -1.7 04:44:44 10° S 04:47:12 19° SE 04:49:40 10° E visible
24 Apr -1.3 03:57:12 11° SSE 03:58:25 13° SE 04:00:00 10° ESE visible
25 Apr -2.8 04:42:52 13° SW 04:45:36 38° SSE 04:48:43 10° E visible
26 Apr -2.3 03:55:35 22° S 03:56:37 26° SE 03:59:28 10° E visible
27 Apr -1.6 03:08:12 17° SE 03:08:12 17° SE 03:09:58 10° E visible
27 Apr -3.7 04:41:02 13° WSW 04:43:56 71° SSE 04:47:15 10° ENE visible
28 Apr -3.4 03:53:34 32° SSW 03:54:47 50° SSE 03:58:01 10° ENE visible
29 Apr -2.7 03:06:01 33° SE 03:06:01 33° SE 03:08:41 10° E visible
29 Apr -3.7 04:38:51 10° W 04:42:09 77° NNW 04:45:30 10° ENE visible
